Time,TemperatureF,DewpointF,PressureIn,WindDirection,WindDirectionDegrees,WindSpeedMPH,WindSpeedGustMPH,Humidity,HourlyPrecipIn,Conditions,Clouds,dailyrainin,SoftwareType,DateUTC
2013-02-02 00:03:00,52.0,-99.9,30.08,NW,318,0.0,0.0,-999,0.00,,,0.00,,2013-02-02 05:03:00,
2013-02-02 00:22:00,52.0,-99.9,30.08,NW,318,0.0,0.0,-999,0.00,,,0.00,,2013-02-02 05:22:00,
2013-02-02 00:33:00,51.0,-99.9,30.07,NW,318,0.0,0.0,-999,0.00,,,0.00,,2013-02-02 05:33:00,
2013-02-02 00:42:00,51.0,-99.9,30.07,NW,318,0.0,0.0,-999,0.00,,,0.00,,2013-02-02 05:42:00,
2013-02-02 00:52:00,51.0,-99.9,30.07,NW,318,0.0,0.0,-999,0.00,,,0.00,,2013-02-02 05:52:00,
2013-02-02 01:02:00,51.0,-99.9,30.07,NW,318,0.0,0.0,-999,0.00,,,0.00,,2013-02-02 06:02:00,
2013-02-02 01:12:00,51.0,-99.9,30.07,NW,318,0.0,0.0,-999,0.00,,,0.00,,2013-02-02 06:12:00,
2013-02-02 01:22:00,51.0,-99.9,30.07,NW,318,0.0,0.0,-999,0.00,,,0.00,,2013-02-02 06:22:00,
2013-02-02 01:32:00,51.0,-99.9,30.07,NW,318,0.0,0.0,-999,0.00,,,0.00,,2013-02-02 06:32:00,
2013-02-02 01:42:00,51.0,-99.9,30.07,NW,318,0.0,0.0,-999,0.00,,,0.00,,2013-02-02 06:42:00,
2013-02-02 01:52:00,51.0,-99.9,30.07,NW,318,0.0,0.0,-999,0.00,,,0.00,,2013-02-02 06:52:00,
2013-02-02 02:02:00,51.0,-99.9,30.07,NW,318,0.0,0.0,-999,0.00,,,0.00,,2013-02-02 07:02:00,
2013-02-02 02:12:00,52.0,-99.9,30.06,NW,318,0.0,0.0,-999,0.00,,,0.00,,2013-02-02 07:12:00,
2013-02-02 02:22:00,52.0,-99.9,30.06,NW,318,0.0,0.0,-999,0.00,,,0.00,,2013-02-02 07:22:00,
2013-02-02 02:32:00,52.0,-99.9,30.06,NW,318,0.0,0.0,-999,0.00,,,0.00,,2013-02-02 07:32:00,
2013-02-02 02:42:00,52.0,-99.9,30.06,NW,318,0.0,0.0,-999,0.00,,,0.00,,2013-02-02 07:42:00,
2013-02-02 02:52:00,52.0,-99.9,30.06,NW,318,0.0,0.0,-999,0.00,,,0.00,,2013-02-02 07:52:00,
2013-02-02 03:01:00,52.0,-99.9,30.06,NW,318,0.0,0.0,-999,0.00,,,0.00,,2013-02-02 08:01:00,
2013-02-02 03:11:00,52.0,-99.9,30.06,NW,318,0.0,0.0,-999,0.00,,,0.00,,2013-02-02 08:11:00,
2013-02-02 03:21:00,51.0,-99.9,30.06,NW,312,0.0,0.0,-999,0.00,,,0.00,,2013-02-02 08:21:00,
2013-02-02 03:32:00,51.0,-99.9,30.06,NW,312,0.0,0.0,-999,0.00,,,0.00,,2013-02-02 08:32:00,
2013-02-02 03:42:00,51.0,-99.9,30.06,NW,312,0.0,0.0,-999,0.00,,,0.00,,2013-02-02 08:42:00,
2013-02-02 03:53:00,51.0,-99.9,30.06,NW,312,0.0,0.0,-999,0.00,,,0.00,,2013-02-02 08:53:00,
2013-02-02 04:02:00,50.0,-99.9,30.06,NW,312,0.0,0.0,-999,0.00,,,0.00,,2013-02-02 09:02:00,
2013-02-02 04:11:00,50.0,-99.9,30.06,NW,312,0.0,0.0,-999,0.00,,,0.00,,2013-02-02 09:11:00,
2013-02-02 04:22:00,50.0,-99.9,30.06,NW,312,0.0,0.0,-999,0.00,,,0.00,,2013-02-02 09:22:00,
2013-02-02 04:32:00,50.0,-99.9,30.06,NW,312,0.0,0.0,-999,0.00,,,0.00,,2013-02-02 09:32:00,
2013-02-02 04:42:00,50.0,-99.9,30.06,NW,312,0.0,0.0,-999,0.00,,,0.00,,2013-02-02 09:42:00,
2013-02-02 04:52:00,50.0,-99.9,30.06,NW,312,0.0,0.0,-999,0.00,,,0.00,,2013-02-02 09:52:00,
2013-02-02 05:02:00,50.0,-99.9,30.06,NW,312,0.0,0.0,-999,0.00,,,0.00,,2013-02-02 10:02:00,
2013-02-02 05:11:00,50.0,-99.9,30.06,NW,312,0.0,0.0,-999,0.00,,,0.00,,2013-02-02 10:11:00,
2013-02-02 05:21:00,50.0,-99.9,30.06,NW,312,0.0,0.0,-999,0.00,,,0.00,,2013-02-02 10:21:00,
2013-02-02 05:32:00,50.0,-99.9,30.06,NW,312,0.0,0.0,-999,0.00,,,0.00,,2013-02-02 10:32:00,
2013-02-02 05:42:00,50.0,-99.9,30.06,NW,312,0.0,0.0,-999,0.00,,,0.00,,2013-02-02 10:42:00,
2013-02-02 05:52:00,50.0,-99.9,30.06,NW,312,0.0,0.0,-999,0.00,,,0.00,,2013-02-02 10:52:00,
2013-02-02 06:02:00,50.0,-99.9,30.06,NW,312,0.0,0.0,-999,0.00,,,0.00,,2013-02-02 11:02:00,
2013-02-02 06:11:00,49.0,-99.9,30.07,NW,312,0.0,0.0,-999,0.00,,,0.00,,2013-02-02 11:11:00,
2013-02-02 06:22:00,49.0,-99.9,30.07,NW,312,0.0,0.0,-999,0.00,,,0.00,,2013-02-02 11:22:00,
2013-02-02 06:32:00,49.0,-99.9,30.06,NW,312,0.0,0.0,-999,0.00,,,0.00,,2013-02-02 11:32:00,
2013-02-02 06:42:00,49.0,-99.9,30.06,NW,312,0.0,0.0,-999,0.00,,,0.00,,2013-02-02 11:42:00,
2013-02-02 06:52:00,50.0,-99.9,30.07,NW,312,0.0,0.0,-999,0.00,,,0.00,,2013-02-02 11:52:00,
2013-02-02 07:02:00,49.0,-99.9,30.08,NW,312,0.0,0.0,-999,0.00,,,0.00,,2013-02-02 12:02:00,
2013-02-02 07:11:00,49.0,-99.9,30.08,NW,312,0.0,0.0,-999,0.00,,,0.00,,2013-02-02 12:11:00,
2013-02-02 07:22:00,49.0,-99.9,30.08,NW,312,0.0,0.0,-999,0.00,,,0.00,,2013-02-02 12:22:00,
2013-02-02 07:32:00,49.0,-99.9,30.08,NW,312,0.0,0.0,-999,0.00,,,0.00,,2013-02-02 12:32:00,
2013-02-02 07:42:00,49.0,-99.9,30.08,NW,312,0.0,0.0,-999,0.00,,,0.00,,2013-02-02 12:42:00,
2013-02-02 07:53:00,49.0,-99.9,30.08,NW,312,0.0,0.0,-999,0.00,,,0.00,,2013-02-02 12:53:00,
2013-02-02 08:03:00,50.0,-99.9,30.09,NNW,346,0.0,0.0,-999,0.00,,,0.00,,2013-02-02 13:03:00,
2013-02-02 08:11:00,50.0,-99.9,30.09,NNW,346,0.0,0.0,-999,0.00,,,0.00,,2013-02-02 13:11:00,
2013-02-02 08:22:00,51.0,-99.9,30.09,NNW,346,0.0,0.0,-999,0.00,,,0.00,,2013-02-02 13:22:00,
2013-02-02 08:33:00,53.0,-99.9,30.08,NW,323,0.0,0.0,-999,0.00,,,0.00,,2013-02-02 13:33:00,
2013-02-02 08:52:00,54.0,-99.9,30.09,NNE,27,0.0,0.0,-999,0.00,,,0.00,,2013-02-02 13:52:00,
2013-02-02 09:03:00,55.0,-99.9,30.09,North,0,0.0,0.0,-999,0.00,,,0.00,,2013-02-02 14:03:00,
2013-02-02 09:22:00,56.0,-99.9,30.09,NNE,17,0.0,0.0,-999,0.00,,,0.00,,2013-02-02 14:22:00,
2013-02-02 09:33:00,58.0,-99.9,30.09,NNE,30,2.0,5.0,-999,0.00,,,0.00,,2013-02-02 14:33:00,
2013-02-02 09:52:00,59.0,-99.9,30.09,NE,42,0.0,0.0,-999,0.00,,,0.00,,2013-02-02 14:52:00,
2013-02-02 10:03:00,59.0,-99.9,30.09,NE,37,1.0,0.0,-999,0.00,,,0.00,,2013-02-02 15:03:00,
2013-02-02 10:13:00,59.0,-99.9,30.09,NE,37,1.0,0.0,-999,0.00,,,0.00,,2013-02-02 15:13:00,
2013-02-02 10:22:00,62.0,-99.9,30.09,NE,37,0.0,0.0,-999,0.00,,,0.00,,2013-02-02 15:22:00,
2013-02-02 10:33:00,62.0,-99.9,30.09,North,7,2.0,0.0,-999,0.00,,,0.00,,2013-02-02 15:33:00,
2013-02-02 10:42:00,62.0,-99.9,30.09,North,7,2.0,0.0,-999,0.00,,,0.00,,2013-02-02 15:42:00,
2013-02-02 10:52:00,63.0,-99.9,30.08,East,91,3.0,0.0,-999,0.00,,,0.00,,2013-02-02 15:52:00,
2013-02-02 11:03:00,64.0,-99.9,30.07,NNE,17,1.0,0.0,-999,0.00,,,0.00,,2013-02-02 16:03:00,
2013-02-02 11:12:00,64.0,-99.9,30.07,NNE,17,1.0,0.0,-999,0.00,,,0.00,,2013-02-02 16:12:00,
2013-02-02 11:23:00,64.0,-99.9,30.06,NNE,17,0.0,0.0,-999,0.00,,,0.00,,2013-02-02 16:23:00,
2013-02-02 11:32:00,65.0,-99.9,30.06,NE,45,1.0,0.0,-999,0.00,,,0.00,,2013-02-02 16:32:00,
2013-02-02 11:42:00,65.0,-99.9,30.06,NE,45,1.0,0.0,-999,0.00,,,0.00,,2013-02-02 16:42:00,
2013-02-02 11:52:00,66.0,-99.9,30.05,NE,34,0.0,0.0,-999,0.00,,,0.00,,2013-02-02 16:52:00,
2013-02-02 12:03:00,66.0,-99.9,30.04,ENE,75,1.0,7.0,-999,0.00,,,0.00,,2013-02-02 17:03:00,
2013-02-02 12:11:00,66.0,-99.9,30.04,ENE,75,1.0,7.0,-999,0.00,,,0.00,,2013-02-02 17:11:00,
2013-02-02 12:23:00,67.0,-99.9,30.04,NE,53,1.0,0.0,-999,0.00,,,0.00,,2013-02-02 17:23:00,
2013-02-02 12:33:00,67.0,-99.9,30.04,ESE,107,4.0,0.0,-999,0.00,,,0.00,,2013-02-02 17:33:00,
2013-02-02 12:42:00,67.0,-99.9,30.04,ESE,107,4.0,0.0,-999,0.00,,,0.00,,2013-02-02 17:42:00,
2013-02-02 12:53:00,68.0,-99.9,30.03,SE,131,1.0,7.0,-999,0.00,,,0.00,,2013-02-02 17:53:00,
2013-02-02 13:03:00,69.0,-99.9,30.02,South,187,1.0,0.0,-999,0.00,,,0.00,,2013-02-02 18:03:00,
2013-02-02 13:12:00,69.0,-99.9,30.02,South,187,1.0,0.0,-999,0.00,,,0.00,,2013-02-02 18:12:00,
2013-02-02 13:22:00,69.0,-99.9,30.01,East,86,0.0,0.0,-999,0.00,,,0.00,,2013-02-02 18:22:00,
2013-02-02 13:32:00,69.0,-99.9,30.00,SE,146,1.0,0.0,-999,0.00,,,0.00,,2013-02-02 18:32:00,
2013-02-02 13:42:00,69.0,-99.9,30.00,SE,146,1.0,0.0,-999,0.00,,,0.00,,2013-02-02 18:42:00,
2013-02-02 13:52:00,70.0,-99.9,29.99,SE,146,1.0,3.0,-999,0.00,,,0.00,,2013-02-02 18:52:00,
2013-02-02 14:02:00,69.0,-99.9,29.98,East,89,0.0,0.0,-999,0.00,,,0.00,,2013-02-02 19:02:00,
2013-02-02 14:12:00,69.0,-99.9,29.98,ESE,120,0.0,0.0,-999,0.00,,,0.00,,2013-02-02 19:12:00,
2013-02-02 14:22:00,69.0,-99.9,29.98,ESE,120,0.0,0.0,-999,0.00,,,0.00,,2013-02-02 19:22:00,
2013-02-02 14:33:00,69.0,-99.9,29.98,South,174,4.0,6.0,-999,0.00,,,0.00,,2013-02-02 19:33:00,
2013-02-02 14:42:00,69.0,-99.9,29.98,South,174,4.0,6.0,-999,0.00,,,0.00,,2013-02-02 19:42:00,
2013-02-02 14:52:00,70.0,-99.9,29.97,East,83,6.0,0.0,-999,0.00,,,0.00,,2013-02-02 19:52:00,
2013-02-02 15:02:00,70.0,-99.9,29.96,East,96,0.0,0.0,-999,0.00,,,0.00,,2013-02-02 20:02:00,
2013-02-02 15:12:00,70.0,-99.9,29.96,East,96,0.0,0.0,-999,0.00,,,0.00,,2013-02-02 20:12:00,
2013-02-02 15:22:00,70.0,-99.9,29.96,ESE,121,5.0,0.0,-999,0.00,,,0.00,,2013-02-02 20:22:00,
2013-02-02 15:32:00,69.0,-99.9,29.96,ESE,110,1.0,5.0,-999,0.00,,,0.00,,2013-02-02 20:32:00,
2013-02-02 15:42:00,69.0,-99.9,29.96,ESE,110,1.0,5.0,-999,0.00,,,0.00,,2013-02-02 20:42:00,
2013-02-02 15:52:00,70.0,-99.9,29.95,SSE,155,2.0,6.0,-999,0.00,,,0.00,,2013-02-02 20:52:00,
2013-02-02 16:02:00,70.0,-99.9,29.95,SSE,153,3.0,0.0,-999,0.00,,,0.00,,2013-02-02 21:02:00,
2013-02-02 16:11:00,70.0,-99.9,29.95,SSE,153,3.0,0.0,-999,0.00,,,0.00,,2013-02-02 21:11:00,
2013-02-02 16:22:00,70.0,-99.9,29.95,SSW,205,0.0,5.0,-999,0.00,,,0.00,,2013-02-02 21:22:00,
2013-02-02 16:32:00,70.0,-99.9,29.95,ESE,117,0.0,0.0,-999,0.00,,,0.00,,2013-02-02 21:32:00,
2013-02-02 16:43:00,70.0,-99.9,29.95,ESE,117,0.0,0.0,-999,0.00,,,0.00,,2013-02-02 21:43:00,
2013-02-02 16:52:00,70.0,-99.9,29.94,SSW,208,0.0,0.0,-999,0.00,,,0.00,,2013-02-02 21:52:00,
2013-02-02 17:03:00,69.0,-99.9,29.94,SSE,160,0.0,0.0,-999,0.00,,,0.00,,2013-02-02 22:03:00,
2013-02-02 17:12:00,69.0,-99.9,29.94,SSE,160,0.0,0.0,-999,0.00,,,0.00,,2013-02-02 22:12:00,
2013-02-02 17:22:00,69.0,-99.9,29.94,SSE,160,0.0,0.0,-999,0.00,,,0.00,,2013-02-02 22:22:00,
2013-02-02 17:32:00,69.0,-99.9,29.94,SSE,160,0.0,0.0,-999,0.00,,,0.00,,2013-02-02 22:32:00,
2013-02-02 17:42:00,69.0,-99.9,29.94,SSE,160,0.0,0.0,-999,0.00,,,0.00,,2013-02-02 22:42:00,
2013-02-02 17:52:00,68.0,-99.9,29.94,SSE,160,0.0,0.0,-999,0.00,,,0.00,,2013-02-02 22:52:00,
2013-02-02 18:02:00,68.0,-99.9,29.94,SSE,160,0.0,0.0,-999,0.00,,,0.00,,2013-02-02 23:02:00,
2013-02-02 18:11:00,68.0,-99.9,29.94,SSE,160,0.0,0.0,-999,0.00,,,0.00,,2013-02-02 23:11:00,
2013-02-02 18:22:00,67.0,-99.9,29.94,SSE,160,0.0,0.0,-999,0.00,,,0.00,,2013-02-02 23:22:00,
2013-02-02 18:33:00,66.0,-99.9,29.94,SSE,160,0.0,0.0,-999,0.00,,,0.00,,2013-02-02 23:33:00,
2013-02-02 18:52:00,65.0,-99.9,29.94,SSE,160,0.0,0.0,-999,0.00,,,0.00,,2013-02-02 23:52:00,
2013-02-02 19:02:00,64.0,-99.9,29.94,SSE,160,0.0,0.0,-999,0.00,,,0.00,,2013-02-03 00:02:00,
2013-02-02 19:11:00,64.0,-99.9,29.94,SSE,160,0.0,0.0,-999,0.00,,,0.00,,2013-02-03 00:11:00,
2013-02-02 19:22:00,63.0,-99.9,29.94,SSE,160,0.0,0.0,-999,0.00,,,0.00,,2013-02-03 00:22:00,
2013-02-02 19:32:00,62.0,-99.9,29.95,SSE,160,0.0,0.0,-999,0.00,,,0.00,,2013-02-03 00:32:00,
2013-02-02 19:42:00,62.0,-99.9,29.95,SSE,160,0.0,0.0,-999,0.00,,,0.00,,2013-02-03 00:42:00,
2013-02-02 19:52:00,62.0,-99.9,29.96,SSE,160,0.0,0.0,-999,0.00,,,0.00,,2013-02-03 00:52:00,
2013-02-02 20:02:00,62.0,-99.9,29.96,SSE,160,0.0,0.0,-999,0.00,,,0.00,,2013-02-03 01:02:00,
2013-02-02 20:11:00,61.0,-99.9,29.96,SSE,160,0.0,0.0,-999,0.00,,,0.00,,2013-02-03 01:11:00,
2013-02-02 20:21:00,61.0,-99.9,29.96,SSE,160,0.0,0.0,-999,0.00,,,0.00,,2013-02-03 01:21:00,
2013-02-02 20:32:00,60.0,-99.9,29.96,SSE,160,0.0,0.0,-999,0.00,,,0.00,,2013-02-03 01:32:00,
2013-02-02 20:42:00,60.0,-99.9,29.96,SSE,160,0.0,0.0,-999,0.00,,,0.00,,2013-02-03 01:42:00,
2013-02-02 20:52:00,63.0,-99.9,29.96,SSE,160,0.0,0.0,-999,0.00,,,0.00,,2013-02-03 01:52:00,
2013-02-02 21:01:00,62.0,-99.9,29.96,SSE,160,0.0,0.0,-999,0.00,,,0.00,,2013-02-03 02:01:00,
2013-02-02 21:11:00,62.0,-99.9,29.96,SSE,160,0.0,0.0,-999,0.00,,,0.00,,2013-02-03 02:11:00,
2013-02-02 21:22:00,61.0,-99.9,29.97,WNW,298,2.0,9.0,-999,0.00,,,0.00,,2013-02-03 02:22:00,
2013-02-02 21:32:00,62.0,-99.9,29.97,WNW,287,0.0,0.0,-999,0.00,,,0.00,,2013-02-03 02:32:00,
2013-02-02 21:42:00,62.0,-99.9,29.97,WNW,287,0.0,0.0,-999,0.00,,,0.00,,2013-02-03 02:42:00,
2013-02-02 21:53:00,61.0,-99.9,29.97,WNW,287,0.0,0.0,-999,0.00,,,0.00,,2013-02-03 02:53:00,
2013-02-02 22:02:00,60.0,-99.9,29.97,WNW,287,0.0,0.0,-999,0.00,,,0.00,,2013-02-03 03:02:00,
2013-02-02 22:11:00,60.0,-99.9,29.96,WNW,287,0.0,0.0,-999,0.00,,,0.00,,2013-02-03 03:11:00,
2013-02-02 22:22:00,60.0,-99.9,29.96,WNW,287,0.0,0.0,-999,0.00,,,0.00,,2013-02-03 03:22:00,
2013-02-02 22:32:00,59.0,-99.9,29.96,WNW,287,0.0,0.0,-999,0.00,,,0.00,,2013-02-03 03:32:00,
2013-02-02 22:42:00,59.0,-99.9,29.96,WNW,287,0.0,0.0,-999,0.00,,,0.00,,2013-02-03 03:42:00,
2013-02-02 22:52:00,59.0,-99.9,29.96,WNW,287,0.0,0.0,-999,0.00,,,0.00,,2013-02-03 03:52:00,
2013-02-02 23:01:00,58.0,-99.9,29.96,WNW,287,0.0,0.0,-999,0.00,,,0.00,,2013-02-03 04:01:00,
2013-02-02 23:11:00,59.0,-99.9,29.96,WNW,287,0.0,0.0,-999,0.00,,,0.00,,2013-02-03 04:11:00,
2013-02-02 23:22:00,59.0,-99.9,29.96,WNW,287,0.0,0.0,-999,0.00,,,0.00,,2013-02-03 04:22:00,
2013-02-02 23:32:00,58.0,-99.9,29.96,WNW,287,0.0,0.0,-999,0.00,,,0.00,,2013-02-03 04:32:00,
2013-02-02 23:42:00,58.0,-99.9,29.96,WNW,287,0.0,0.0,-999,0.00,,,0.00,,2013-02-03 04:42:00,
2013-02-02 23:52:00,58.0,-99.9,29.95,WNW,287,0.0,0.0,-999,0.00,,,0.00,,2013-02-03 04:52:00,